Regional Weather Roundup
Issued by NWS

Home | Current Version | Previous Version | Graphics & Text | Print | Product List | Glossary On
Versions: 1 2 3 4 5 6 7 8 9 10 11 12 13 14 15 16 17 18 19 20 21 22 23 24 25 26 27 28 29 30 31 32 33 34 35 36 37 38 39 40 41 42 43 44 45 46 47 48 49 50
000
ASUS43 KMKX 222000
RWRWI

WISCONSIN REGIONAL WEATHER ROUNDUP
NATIONAL WEATHER SERVICE MILWAUKEE/SULLIVAN WI
200 PM CST THU FEB 22 2018

NOTE: "FAIR" INDICATES FEW OR NO CLOUDS BELOW 12,000 FEET WITH NO
SIGNIFICANT WEATHER AND/OR OBSTRUCTIONS TO VISIBILITY.

WIZ001-002-006>008-014>016-023>028-222100-
NORTHWEST WISCONSIN

CITY           SKY/WX    TMP DP  RH WIND       PRES   REMARKS
SUPERIOR ARPT  CLOUDY    20   9  62 NE3       30.53F
ASHLAND        CLOUDY    21   7  54 N7        30.51F WCI  12
HAYWARD        CLOUDY    29   8  41 S5        30.47F WCI  24
SIREN          CLOUDY    27   3  35 SE5       30.49F WCI  22
CUMBERLAND     CLOUDY    25   7  46 SE8       30.48F WCI  16
RICE LAKE      CLOUDY    27  10  47 SE6       30.50F WCI  21
CHETEK         CLOUDY    28   9  45 E6        30.49F WCI  22
LADYSMITH      CLOUDY    32  11  42 SE6       30.49F WCI  26
EAU CLAIRE     NOT AVBL
MENOMONIE      FAIR      29  11  48 E9        30.50F WCI  20
NEW RICHMOND   CLOUDY    27   9  46 E8        30.47F WCI  18
OSCEOLA        CLOUDY    27   9  46 CALM      30.51F
$$

WIZ003>005-009-010-017-018-222100-
NORTH CENTRAL WISCONSIN

CITY           SKY/WX    TMP DP  RH WIND       PRES   REMARKS
MANITOWISH WTR CLOUDY    28   7  41 E5        30.47F WCI  23
ARBOR VITAE    CLOUDY    32  12  44 SE6       30.48F WCI  26
WOODRUFF       CLOUDY    32  12  44 SE6       30.48F WCI  26
RHINELANDER    CLOUDY    30  10  43 E8        30.48F WCI  22
EAGLE RIVER    CLOUDY    31   7  36 CALM      30.48F
LAND O LAKES   CLOUDY    31   8  36 SE5       30.50F WCI  27
PHILLIPS       PTSUNNY   31  10  41 SE6       30.46F WCI  25
TOMAHAWK       CLOUDY    30   9  41 E3        30.49F
MEDFORD        PTSUNNY   26  10  50 E7        30.48F WCI  19
MERRILL        CLOUDY    28  14  54 E7        30.50F WCI  21
$$

WIZ029-030-035-036-043>047-222100-
CENTRAL WISCONSIN

CITY           SKY/WX    TMP DP  RH WIND       PRES   REMARKS
WAUSAU         FAIR      28  10  46 SE10      30.49F WCI  19
MOSINEE        PTSUNNY   28  10  47 E7        30.52F WCI  21
MARSHFIELD     CLOUDY    27  15  61 E9        30.47F WCI  18
STEVENS POINT  CLOUDY    27  15  61 E7        30.53F WCI  19
WAUPACA        CLOUDY    32  20  59 E8        30.54F WCI  25
WAUTOMA        CLOUDY    30  21  69 E10       30.50F WCI  21
WISC RAPIDS    CLOUDY    30  14  51 E13       30.50F WCI  20
CAMP DOUGLAS   CLOUDY    30  18  59 E12       30.47F WCI  21
$$

WIZ011>013-019>022-031-037>040-048>050-222100-
NORTHEAST WISCONSIN

CITY           SKY/WX    TMP DP  RH WIND       PRES   REMARKS
ANTIGO         CLOUDY    27  13  55 E9        30.52F WCI  18
SHAWANO        CLOUDY    31  20  63 NE7       30.57F WCI  24
OCONTO         FAIR      31  20  65 E7        30.58F WCI  24
STURGEON BAY   FAIR      33  17  51 NE9       30.58F WCI  25
GREEN BAY      FAIR      31  21  66 NE13      30.57F WCI  21
MANITOWOC      PTSUNNY   32  23  69 E8        30.56F WCI  25
APPLETON       CLOUDY    30  18  59 NE7       30.54S WCI  23
CLINTONVILLE   CLOUDY    32  18  57 E8        30.55F WCI  25
OSHKOSH        CLOUDY    32  23  69 NE7       30.52F WCI  26
$$

WIZ032>034-041-042-053>061-222100-
SOUTHWEST WISCONSIN

CITY           SKY/WX    TMP DP  RH WIND       PRES   REMARKS
LA CROSSE      CLOUDY    31  19  61 E6        30.47F WCI  25
SPARTA         CLOUDY    30  19  61 E8        30.50F WCI  23
VIROQUA        CLOUDY    31  19  61 E8        30.44F WCI  23
BOSCOBEL       CLOUDY    33  21  61 NE6       30.46F WCI  28
PRAIRIE DU CHI CLOUDY    33  17  53 NE7       30.44F WCI  27
PLATTEVILLE    CLOUDY    33  26  75 E17       30.41F WCI  22
$$

WIZ056-057-062-063-064-067-068-222100-
SOUTH CENTRAL WISCONSIN

CITY           SKY/WX    TMP DP  RH WIND       PRES   REMARKS
REEDSBURG      CLOUDY    31  20  64 E7        30.46F WCI  24
BARABOO/DELLS  CLOUDY    31  19  62 E15       30.48F WCI  20
LONE ROCK      NOT AVBL
MINERAL POINT  CLOUDY    34  27  75 E16       30.40F WCI  23
MADISON        CLOUDY    33  24  69 E13       30.47F WCI  24
MIDDLETON      PTSUNNY   34  24  68 E8        30.48F WCI  27
WATERTOWN      CLOUDY    33  26  72 E10G18    30.50F WCI  25
MONROE         CLOUDY    34  27  75 NE12G20   30.42F WCI  25
JANESVILLE     CLOUDY    37  28  70 E17       30.45F WCI  28
$$

WIZ051-052-058>065-066-070>072-222100-
SOUTHEAST WISCONSIN

CITY           SKY/WX    TMP DP  RH WIND       PRES   REMARKS
MILWAUKEE      CLOUDY    34  29  82 NE13      30.51F WCI  25
WAUKESHA       PTSUNNY   32  25  74 E14       30.51F WCI  22
MILWAUKEE/TIMM CLOUDY    34  25  69 E10       30.53F WCI  26
RACINE         CLOUDY    36  29  75 NE13      30.52F WCI  27
BURLINGTON     CLOUDY    33  28  79 E12       30.50F WCI  25
KENOSHA        CLOUDY    36  29  75 E15       30.49F WCI  27
FOND DU LAC    CLOUDY    34  18  52 E10       30.52F WCI  26
SHEBOYGAN      CLOUDY    32  27  81 NE14      30.53F WCI  22
WEST BEND      CLOUDY    32  28  86 E12       30.51F WCI  23
JUNEAU         CLOUDY    32  23  69 E9        30.51F WCI  24
$$

LSZ147-162-222100-
LAKE SUPERIOR

STATION/POSITION TIME  TEMP    WIND        PRES    WAVE
                       AIR SEA DIR/SP/G            HT/PER
                 (UTC) (F)     (DEG/KT/KT) (MB)    (FT/S)
DEVILS ISLAND    1900   20      80/  5/  6 1036.4F
SAXON HARBOR     1930   22      40/  6/  7 1033.5F
$$

LMZ867-665-643>646-222100-
LAKE MICHIGAN

STATION/POSITION TIME  TEMP    WIND        PRES    WAVE
                       AIR SEA DIR/SP/G            HT/PER
                 (UTC) (F)     (DEG/KT/KT) (MB)    (FT/S)
NORTHPORT PIER   1940   28                 1035.9F
KEWAUNEE LAKESHO 1930   31      60/  6/ 10 1034.3F
SHEBOYGAN LAKESH 1900   31      50/  9/ 10 1036.1F
PORT WASHINGTON  1930   33      60/  8/ 11 1035.2F
MILWAUKEE LAKESH 1930   32      60/ 11/ 12   N/A
KENOSHA   LAKESH 1900   33      70/ 11/ 12 1033.5
$$

TC  - TEMPERATURE IN CELSIUS
VSB - VISIBILITY IN STATUTE MILES
WCI - WIND CHILL INDEX
HX  - HEAT INDEX





USA.gov is the U.S. government's official web portal to all federal, state and local government web resources and services.